Home   Weather   Norfolk   Past weeks

Flag for Canada Past Weather in Norfolk, Ontario, Canada — Yesterday and Last 2 Weeks

Now
38 °F

Chilly.


Feels Like: 31 °F
Forecast: 36 / 40 °F
Wind: 12 mph from Northwest

Location: Delhi Cs Ont

Current Time: Dec 2, 2016 at 3:04:17 pm

Latest Report: Dec 2, 2016 at 2:00 pm


Visibility: N/A

Pressure: 29.95 "Hg

Humidity: 64%

Dew Point: 27 °F

Location of NorfolkLocation

Past Weather in Norfolk — Graph

°F

Norfolk Temperature Yesterday

Maximum temperature yesterday: 45 °F (at 12:00 am)
Minimum temperature yesterday: 36 °F (at 8:00 am)
Average temperature yesterday: 39 °F

High & Low Weather Summary for the Past Weeks

 TemperatureHumidityPressure
High68 °F (Nov 18, 2:00 pm)100% (Nov 23, 4:00 am)30.36 "Hg (Nov 23, 4:00 am)
Low19 °F (Nov 23, 5:00 am)39% (Nov 18, 2:00 pm)29.47 "Hg (Nov 30, 10:00 pm)
Average40 °F81%29.96 "Hg
* Reported Nov 17 3:00 pm — Dec 2 2:00 pm, Norfolk, Weather by CustomWeather, © 2016

Note: Actual official high and low records may vary slightly from our data, if they occured in-between our weather recording intervals... More about our weather records

Advertising

Norfolk Weather History for the Previous 24 Hours

Scroll right to see more
 ConditionsComfort  
Time TempWeatherWind HumidityBarometerVisibility
2:00 pm
Fri, Dec 2
38 °FChilly.12 mph64%29.95 "HgN/A
1:00 pm38 °FChilly.13 mph64%29.94 "HgN/A
12:00 pm40 °FChilly.10 mph67%29.94 "HgN/A
11:00 am39 °FChilly.10 mph67%29.95 "HgN/A
10:00 am39 °FChilly.8 mph83%29.93 "HgN/A
9:00 am37 °FChilly.6 mph91%29.92 "HgN/A
8:00 am37 °FChilly.7 mph92%29.91 "HgN/A
7:00 am37 °FChilly.5 mph94%29.89 "HgN/A
6:00 am39 °FChilly.5 mph87%29.87 "HgN/A
5:00 am36 °FChilly.5 mph92%29.87 "HgN/A
4:00 am38 °FChilly.6 mph90%29.86 "HgN/A
3:00 am40 °FChilly.5 mph84%29.85 "HgN/A
2:00 am39 °FChilly.8 mph83%29.83 "HgN/A
1:00 am40 °FChilly.6 mph83%29.81 "HgN/A
12:00 am40 °FChilly.8 mph83%29.80 "HgN/A
11:00 pm
Thu, Dec 1
40 °FChilly.8 mph84%29.80 "HgN/A
10:00 pm40 °FChilly.8 mph83%29.79 "HgN/A
9:00 pm40 °FChilly.9 mph81%29.79 "HgN/A
8:00 pm40 °FChilly.8 mph81%29.79 "HgN/A
7:00 pm39 °FChilly.9 mph81%29.78 "HgN/A
6:00 pm39 °FChilly.10 mph80%29.76 "HgN/A
5:00 pm39 °FChilly.7 mph73%29.75 "HgN/A
4:00 pm40 °FChilly.8 mph72%29.73 "HgN/A
3:00 pm40 °FQuite cool.9 mph73%29.71 "HgN/A
Weather by CustomWeather, © 2016

See weather overviewHow to use our weather pages